Location: *
(34.8620°S, 39.3380°E)
Time: 23:49:21
(UTC+00:00)

Cosmos 2228 - Pass Details

Date: 27 July 2021
Orbit: 588 x 618 km, 82.5° (Epoch: 20 September)

Event Time Altitude Azimuth Distance (km) Brightness Sun altitude
Rises 03:03:26 0° 186° (S) 2,909 6.3 -15.9°
Reaches altitude 10° 03:05:40 10° 185° (S) 2,000 5.5 -15.5°
Maximum altitude 03:10:07 83° 97° (E) 633 3.1 -14.6°
Drops below altitude 10° 03:14:31 10° 8° (N) 1,982 5.9 -13.7°
Sets 03:16:44 0° 7° (N) 2,880 6.8 -13.3°
